Location: Street
(51.1247°N, 2.7429°W)
Time: 08:57:27
(UTC+01:00)

PCSat - Pass Details

Date: 29 March 2023
Orbit: 783 x 794 km, 67.1° (Epoch: 29 May)

Event Time Altitude Azimuth Distance (km) Brightness Sun altitude
Rises 00:26:16 0° 323° (NW) 3,301 13.7 -34.7°
Reaches altitude 10° 00:28:50 10° 331° (NNW) 2,370 12.8 -34.8°
Enters shadow 00:32:36 35° 6° (N) 1,274 11.0 -34.9°
